Location: Table Mountain
(47.2500°N, 120.5778°W)
Time: 22:44:53
(UTC-08:00)

Vanguard 2 Rocket - Visible Passes

Search period start: 11 December 2017 00:00
Search period end: 21 December 2017 00:00
Orbit: 555 x 3326 km, 32.9° (Epoch: 11 December)

Date Brightness Start Highest point End Pass type
(mag) Time Alt. Az. Time Alt. Az. Time Alt. Az.
11 Dec 10.6 02:45:18 12° S 02:45:18 12° S 02:46:23 10° S visible
11 Dec 9.9 18:35:21 10° SSW 18:45:59 29° SE 18:51:26 25° ESE visible
11 Dec 9.7 20:46:04 10° SW 20:57:14 44° S 20:57:14 44° S visible
11 Dec 10.6 22:59:57 10° WSW 23:03:03 18° WSW 23:03:03 18° WSW visible
12 Dec 10.0 17:38:05 10° S 17:46:17 20° SE 17:55:15 13° E visible
12 Dec 9.6 19:46:58 10° SW 19:59:42 42° SSE 20:01:03 42° SSE visible
12 Dec 10.1 21:59:45 10° WSW 22:06:51 32° SW 22:06:51 32° SW visible
13 Dec 10.2 16:42:59 10° SSE 16:47:02 12° SE 16:51:42 10° ESE visible
13 Dec 9.7 18:48:25 10° SSW 18:59:19 35° SSE 19:04:50 29° ESE visible
13 Dec 9.6 21:00:01 10° WSW 21:10:38 45° SSW 21:10:38 45° SSW visible
13 Dec 10.7 23:14:14 10° W 23:16:26 16° WSW 23:16:26 16° WSW visible
14 Dec 9.8 17:50:31 10° SSW 17:59:28 27° SE 18:08:36 16° ESE visible
14 Dec 9.5 20:00:44 10° SW 20:13:23 46° SSE 20:14:25 46° SSE visible
14 Dec 10.2 22:13:56 10° WSW 22:20:12 29° WSW 22:20:12 29° WSW visible
15 Dec 10.0 16:53:36 10° S 17:00:06 18° SE 17:08:38 10° E visible
15 Dec 9.5 19:01:57 10° SW 19:12:53 40° SSE 19:18:10 33° SE visible
15 Dec 9.7 21:14:07 10° WSW 21:23:58 43° SSW 21:23:58 43° SSW visible
15 Dec 10.7 23:28:41 10° W 23:29:46 13° W 23:29:46 13° W visible
16 Dec 9.6 18:03:40 10° SSW 18:12:52 32° SSE 18:21:56 19° ESE visible
16 Dec 9.4 20:14:46 10° WSW 20:27:13 48° S 20:27:44 48° SSE visible
16 Dec 10.3 22:28:18 10° W 22:33:32 26° WSW 22:33:32 26° WSW visible
17 Dec 9.7 17:06:02 10° S 17:13:22 24° SE 17:23:53 10° E visible
17 Dec 9.4 19:15:48 10° SW 19:26:38 44° SSE 19:31:30 36° SE visible
17 Dec 9.8 21:28:24 10° WSW 21:37:18 39° SW 21:37:18 39° SW visible
18 Dec 9.4 18:17:17 10° SW 18:26:30 37° SSE 18:35:17 22° ESE visible
18 Dec 9.4 20:28:57 10° WSW 20:41:05 47° S 20:41:05 47° S visible
18 Dec 10.4 22:42:50 10° W 22:46:53 21° WSW 22:46:53 21° WSW visible
19 Dec 9.5 17:19:14 10° SSW 17:26:52 29° SSE 17:38:29 10° E visible
19 Dec 9.3 19:29:53 10° WSW 19:40:32 45° S 19:44:52 38° SE visible
19 Dec 9.9 21:42:51 10° WSW 21:50:40 34° SW 21:50:40 34° SW visible
20 Dec 9.3 18:31:13 10° SW 18:40:20 40° SSE 18:48:41 24° ESE visible
20 Dec 9.5 20:43:18 10° WSW 20:54:30 43° SSW 20:54:30 43° SSW visible
20 Dec 10.5 22:57:42 10° W 23:00:18 16° WSW 23:00:18 16° WSW visible
